DW9234 Weather Reports


time (UTC)temp
F
wind
direction
speed
knots
gust
knots
rain 1hr
in
rain 24hr
in
rain mn
in
humidity
%
barometer
mb
20260510171004 79 76 0.0 5.2 0.00 0.00 0.00 35 1014.3
20260510170004 79 56 4.3 6.1 0.00 0.00 0.00 36 1014.5
20260510165003 78 83 0.9 7.0 0.00 0.00 0.00 35 1014.6
20260510164003 78 298 0.0 5.2 0.00 0.00 0.00 37 1014.6
20260510163004 78 298 3.5 4.3 0.00 0.00 0.00 40 1014.6
20260510162004 77 218 1.7 4.3 0.00 0.00 0.00 45 1014.4
20260510161003 76 178 0.9 6.1 0.00 0.00 0.00 42 1014.6
20260510160003 76 28 0.0 3.5 0.00 0.00 0.00 45 1014.8
20260510155004 76 281 0.9 7.8 0.00 0.00 0.00 43 1014.6
20260510154004 75 157 1.7 4.3 0.00 0.00 0.00 48 1014.8
20260510153004 74 161 0.0 7.0 0.00 0.00 0.00 47 1014.9
20260510152004 74 57 0.9 3.5 0.00 0.00 0.00 48 1014.8
20260510151003 73 275 0.0 5.2 0.00 0.00 0.00 50 1014.8
20260510150004 72 95 1.7 4.3 0.00 0.00 0.00 53 1014.6
20260510145004 70 262 1.7 4.3 0.00 0.00 0.00 54 1014.5
20260510144004 69 291 2.6 4.3 0.00 0.00 0.00 59 1014.7
20260510143003 68 288 0.9 4.3 0.00 0.00 0.00 58 1014.8
20260510142003 67 165 1.7 3.5 0.00 0.00 0.00 62 1014.8
20260510141004 64 282 1.7 5.2 0.00 0.00 0.00 66 1015.0
20260510140004 62 227 0.9 3.5 0.00 0.00 0.00 68 1014.9
20260510135003 61 49 0.0 1.7 0.00 0.00 0.00 73 1014.9
20260510134003 60 63 0.0 3.5 0.00 0.00 0.00 75 1014.8
20260510133004 59 215 0.0 0.0 0.00 0.00 0.00 78 1014.9
20260510132004 58 211 0.0 0.0 0.00 0.00 0.00 82 1015.0
20260510131003 57 210 0.0 0.0 0.00 0.00 0.00 84 1014.9
20260510130003 56 211 0.0 0.0 0.00 0.00 0.00 84 1015.1
20260510125003 56 216 0.0 0.0 0.00 0.00 0.00 84 1015.1
20260510124003 55 219 0.0 0.0 0.00 0.00 0.00 84 1015.0
20260510123004 55 219 0.0 0.0 0.00 0.00 0.00 84 1015.0
20260510120004 54 219 0.0 0.0 0.00 0.00 0.00 83 1014.5
20260510115005 53 242 0.0 0.0 0.00 0.00 0.00 82 1014.4
20260510113004 52 242 0.0 0.0 0.00 0.00 0.00 81 1014.2
20260510110005 52 242 0.0 0.0 0.00 0.00 0.00 79 1013.6
20260510105004 52 242 0.0 0.0 0.00 0.00 0.00 78 1013.7
20260510103005 51 243 0.0 0.0 0.00 0.00 0.00 77 1013.5
20260510102004 51 242 0.0 0.0 0.00 0.00 0.00 77 1013.1
20260510101005 51 242 0.0 0.0 0.00 0.00 0.00 77 1013.1
20260510100004 51 242 0.0 0.0 0.00 0.00 0.00 76 1013.1
20260510095005 51 242 0.0 0.0 0.00 0.00 0.00 76 1013.1
20260510094004 51 242 0.0 0.0 0.00 0.00 0.00 75 1013.1
20260510093005 52 242 0.0 0.0 0.00 0.00 0.00 75 1013.0
20260510092005 52 242 0.0 0.9 0.00 0.00 0.00 75 1013.0
20260510091005 52 242 0.0 1.7 0.00 0.00 0.00 75 1012.8
20260510090004 52 248 0.9 4.3 0.00 0.00 0.00 74 1013.0
20260510085005 52 317 1.7 2.6 0.00 0.00 0.00 74 1013.1
20260510084005 52 242 3.5 4.3 0.00 0.00 0.00 74 1012.9
20260510083004 52 275 0.0 0.0 0.00 0.00 0.00 73 1012.7
20260510082005 53 275 0.0 0.0 0.00 0.00 0.00 73 1012.6
20260510081004 53 275 0.0 0.0 0.00 0.00 0.00 73 1012.4
20260510080005 53 275 0.0 0.0 0.00 0.00 0.00 73 1012.3
20260510075005 53 275 0.0 0.0 0.00 0.00 0.00 73 1012.4
20260510074004 53 275 0.0 0.0 0.00 0.00 0.00 73 1012.3
20260510073005 53 275 0.0 0.0 0.00 0.00 0.00 73 1012.3
20260510072004 53 275 0.0 0.0 0.00 0.00 0.00 73 1012.2
20260510065004 54 275 0.0 0.0 0.00 0.00 0.00 73 1011.6
20260510064005 54 275 0.0 0.0 0.00 0.00 0.00 73 1011.7
20260510063005 54 275 0.0 0.0 0.00 0.00 0.00 72 1011.7
20260510062005 54 275 0.0 0.0 0.00 0.00 0.00 72 1011.9
20260510061005 54 275 0.0 0.0 0.00 0.00 0.00 72 1011.9
20260510055004 54 275 0.0 0.0 0.00 0.00 0.00 71 1011.9
20260510054004 54 275 0.0 0.0 0.00 0.00 0.00 71 1012.0
20260510053004 54 275 0.0 0.0 0.00 0.00 0.00 70 1012.0
20260510052005 54 275 0.0 0.0 0.00 0.00 0.00 70 1012.1
20260510050005 54 275 0.0 0.0 0.00 0.00 0.00 71 1012.3
20260510045004 55 275 0.0 0.0 0.00 0.00 0.00 70 1012.3
20260510044005 55 275 0.0 0.0 0.00 0.00 0.00 70 1012.3
20260510043005 55 275 0.0 0.0 0.00 0.00 0.00 70 1012.3
20260510042005 55 275 0.0 0.0 0.00 0.00 0.00 69 1012.3
20260510041004 55 275 0.0 0.0 0.00 0.00 0.00 69 1012.3
20260510035004 55 275 0.0 0.0 0.00 0.00 0.04 69 1012.5
20260510033005 55 275 0.0 0.0 0.00 0.00 0.04 68 1012.3
20260510032004 56 275 0.0 0.0 0.00 0.00 0.04 68 1012.3
20260510031004 56 275 0.0 0.0 0.00 0.00 0.04 68 1012.1
20260510025005 56 275 0.0 0.0 0.00 0.00 0.04 68 1012.0
20260510024004 56 275 0.0 0.0 0.00 0.00 0.04 67 1012.1
20260510023005 56 275 0.0 0.0 0.00 0.00 0.04 67 1012.1
20260510022005 56 275 0.0 0.0 0.00 0.00 0.04 66 1012.1
20260510021005 57 275 0.0 0.0 0.00 0.00 0.04 66 1012.1
20260510020005 57 275 0.0 0.0 0.00 0.00 0.04 65 1012.0
20260510015004 57 275 0.0 0.0 0.00 0.00 0.04 65 1012.0
20260510014005 58 275 0.0 0.0 0.00 0.00 0.04 65 1011.9
20260510013005 58 275 0.0 0.0 0.00 0.00 0.04 64 1011.8
20260510011005 58 275 0.0 0.0 0.00 0.00 0.04 63 1011.7
20260510010005 59 275 0.0 0.0 0.00 0.00 0.04 63 1011.5
20260510005004 59 275 0.0 0.0 0.00 0.00 0.04 63 1011.5
20260510003005 60 275 0.0 0.0 0.00 0.00 0.04 62 1011.5
20260510001005 61 274 0.0 0.0 0.00 0.00 0.04 62 1011.4
20260510000004 61 274 0.0 0.0 0.00 0.00 0.04 61 1011.4
20260509235004 61 274 0.0 0.0 0.00 0.00 0.04 61 1011.4
20260509233004 62 274 0.0 0.0 0.00 0.00 0.04 61 1011.3
20260509232005 62 274 0.0 0.0 0.00 0.00 0.04 60 1011.3
20260509225004 62 275 0.0 0.0 0.00 0.00 0.04 60 1011.2
20260509224005 62 275 0.0 0.0 0.00 0.00 0.04 59 1011.2
20260509223005 62 275 0.0 0.0 0.00 0.00 0.04 59 1011.3
20260509222004 62 273 0.0 0.0 0.00 0.00 0.04 59 1011.4
20260509221005 62 273 0.0 0.0 0.00 0.00 0.04 59 1011.3
20260509220005 62 267 0.0 0.0 0.00 0.00 0.04 58 1011.2
20260509215004 63 269 0.0 0.0 0.00 0.00 0.04 58 1011.2
20260509212004 64 271 0.0 1.7 0.00 0.00 0.04 58 1011.2
20260509211004 64 273 0.0 0.9 0.00 0.00 0.04 57 1011.2
20260509210004 64 273 0.0 0.9 0.00 0.00 0.04 56 1011.1
20260509205004 64 273 0.0 0.9 0.00 0.00 0.04 56 1011.2
20260509204004 64 273 0.0 1.7 0.00 0.00 0.04 57 1011.2
20260509203004 64 273 0.9 3.5 0.00 0.00 0.04 56 1011.2
20260509202004 64 290 0.0 0.9 0.00 0.00 0.04 55 1011.3
20260509200004 64 274 1.7 2.6 0.00 0.00 0.04 56 1011.4
20260509195004 64 336 0.0 1.7 0.00 0.00 0.04 56 1011.3
20260509194005 64 328 0.0 1.7 0.00 0.00 0.04 56 1011.3
20260509193004 64 350 0.0 1.7 0.00 0.00 0.04 58 1011.3
20260509191004 63 9 0.9 1.7 0.00 0.00 0.04 59 1011.7
20260509190005 63 15 0.0 1.7 0.00 0.00 0.04 58 1011.9
20260509185005 63 26 0.0 3.5 0.00 0.00 0.04 59 1012.0
20260509183004 63 296 0.9 2.6 0.00 0.00 0.04 58 1012.2
20260509181005 63 284 0.9 1.7 0.00 0.00 0.04 59 1012.3
20260509180005 63 267 0.0 4.3 0.00 0.00 0.04 59 1012.4
20260509175004 63 261 0.0 1.7 0.00 0.00 0.04 59 1012.4
20260509174004 63 273 3.5 4.3 0.00 0.00 0.04 58 1012.5
20260509173004 64 269 0.0 3.5 0.00 0.00 0.04 58 1012.4
20260509172005 64 284 2.6 4.3 0.00 0.00 0.04 60 1012.4